Weather History for South Lake Tahoe, CA

Change the Weather History Date:

Sunday, January 22, 2012

  Actual Average Record
Temperature  
Mean Temperature 25 °F 30 °F  
Max Temperature 38 °F 43 °F 57 °F (2014)
Min Temperature 12 °F 16 °F -9 °F (1982)
Degree Days  
Heating Degree Days 40 35  
Month to date heating degree days 665 777  
Since 1 July heating degree days 3465 3960  
Cooling Degree Days 0 0  
Month to date cooling degree days 0 0  
Year to date cooling degree days 0 0  
Moisture  
Dew Point 25 °F    
Average Humidity 55    
Maximum Humidity 84    
Minimum Humidity 26    
Precipitation  
Precipitation 0.21 in - 2.62 in (1951)
Month to date precipitation 3.15  
Year to date precipitation 3.15  
Sea Level Pressure  
Sea Level Pressure 29.93 in    
Wind  
Wind Speed 9 mph (South)    
Max Wind Speed 24 mph    
Max Gust Speed 35 mph    
Visibility 3 miles    
Events Snow    
T = Trace of Precipitation, MM = Missing Value Source: NWS Daily Summary

Daily Weather History Graph

Daily Weather History Graph

Search for Another Location

Airport:

Trip Planner

Search our weather history database for the weather conditions in past years. The results will help you decide how hot, cold, wet, or windy it might be!

Date:

Astronomy

Jan. 22, 2012 Rise Set
Actual Time 7:13 AM PST 5:09 PM PST
Civil Twilight 6:45 AM PST 5:38 PM PST
Nautical Twilight 6:12 AM PST 6:10 PM PST
Astronomical Twilight 5:40 AM PST 6:42 PM PST
Moon 6:34 AM PST (1/22) 4:56 PM PST (1/22)
Length of Visible Light 10h 53m
Length of Day
9h 55m
Waning Crescent, 0% of the Moon is Illuminated
Jan 22
Waning Crescent
Jan 22
New
Jan 30
First Quarter
Feb 7
Full
Feb 14
Last Quarter

Hourly Weather History & Observations

Time (PST) Temp. Windchill Dew Point Humidity Pressure Visibility Wind Dir Wind Speed Gust Speed Precip Events Conditions
12:53 AM 16.0 °F - 10.9 °F 81% 30.12 in 10.0 mi Calm Calm - N/A   Clear
1:53 AM 19.0 °F - 14.0 °F 81% 30.10 in 10.0 mi Calm Calm - N/A   Partly Cloudy
2:53 AM 19.9 °F - 16.0 °F 85% 30.07 in 10.0 mi Calm Calm - N/A   Scattered Clouds
3:53 AM 24.1 °F 19.7 °F 16.0 °F 71% 30.04 in 10.0 mi SSW 3.5 mph - N/A   Overcast
4:53 AM 25.0 °F - 19.0 °F 78% 30.05 in 10.0 mi Calm Calm - N/A   Overcast
5:53 AM 27.0 °F 18.7 °F 14.0 °F 58% 30.04 in 10.0 mi SSW 8.1 mph - N/A   Partly Cloudy
6:53 AM 28.9 °F 17.7 °F 10.9 °F 47% 30.04 in 10.0 mi South 15.0 mph 23.0 mph N/A   Overcast
7:53 AM 32.0 °F 26.4 °F 8.6 °F 38% 29.99 in 10.0 mi Variable 5.8 mph 18.4 mph N/A   Overcast
8:53 AM 33.1 °F 30.0 °F 6.1 °F 32% 30.07 in 10.0 mi SW 3.5 mph 17.3 mph N/A   Overcast
9:53 AM 35.1 °F 27.9 °F 3.9 °F 27% 30.04 in 10.0 mi South 9.2 mph 20.7 mph N/A   Overcast
10:53 AM 33.1 °F 24.9 °F 10.9 °F 40% 30.10 in 10.0 mi SSW 10.4 mph 24.2 mph N/A   Overcast
11:29 AM 30.2 °F 18.5 °F 17.6 °F 60% 30.05 in 2.5 mi South 17.3 mph 26.5 mph 0.00 in Snow Light Snow
11:36 AM 28.4 °F 19.7 °F 19.4 °F 69% 30.06 in 1.2 mi South 9.2 mph 26.5 mph 0.00 in Snow Light Snow
11:49 AM 28.4 °F 18.0 °F 19.4 °F 69% 30.04 in 0.5 mi South 12.7 mph 26.5 mph 0.00 in Snow Snow
11:53 AM 28.4 °F 16.6 °F 19.4 °F 69% 30.04 in 0.5 mi South 16.1 mph 20.7 mph N/A Snow Snow
12:03 PM 28.4 °F 18.5 °F 21.2 °F 74% 30.02 in 0.5 mi SSE 11.5 mph - 0.00 in Snow Snow
12:18 PM 28.4 °F 18.5 °F 19.4 °F 69% 30.02 in 0.8 mi South 11.5 mph - N/A Snow Light Snow
12:25 PM 28.4 °F 18.5 °F 19.4 °F 69% 30.01 in 1.0 mi SSW 11.5 mph - 0.00 in Snow Light Snow
12:31 PM 28.4 °F 17.5 °F 21.2 °F 74% 30.01 in 0.5 mi SSW 13.8 mph 19.6 mph 0.00 in Snow Snow
12:53 PM 28.4 °F 20.4 °F 21.2 °F 74% 29.98 in 0.2 mi SSE 8.1 mph - N/A Snow Heavy Snow
1:06 PM 28.4 °F 19.7 °F 21.2 °F 74% 29.99 in 0.8 mi SSW 9.2 mph - 0.00 in Snow Light Snow
1:19 PM 28.4 °F 20.4 °F 23.0 °F 80% 30.00 in 0.2 mi South 8.1 mph - 0.01 in Snow Heavy Snow
1:53 PM 30.9 °F 19.8 °F 24.1 °F 76% 30.04 in 1.0 mi South 16.1 mph - 0.01 in Snow Light Snow
2:08 PM 30.2 °F 20.2 °F 24.8 °F 80% 29.96 in 0.5 mi SSE 12.7 mph - 0.00 in Snow Snow
2:16 PM 30.2 °F 20.2 °F 26.6 °F 86% 29.96 in 0.2 mi South 12.7 mph - 0.01 in Snow Heavy Snow
2:31 PM 32.0 °F 24.8 °F 26.6 °F 80% 29.94 in 2.5 mi South 8.1 mph 17.3 mph 0.01 in Snow Light Snow
2:35 PM 32.0 °F 25.6 °F 26.6 °F 80% 29.94 in 5.0 mi South 6.9 mph 17.3 mph 0.01 in Snow Light Snow
2:53 PM 35.1 °F 27.9 °F 25.0 °F 67% 29.95 in 10.0 mi South 9.2 mph - 0.01 in   Overcast
3:18 PM 35.6 °F 28.0 °F 26.6 °F 70% 29.91 in 6.0 mi SSW 10.4 mph 16.1 mph N/A   Haze
3:41 PM 35.6 °F 29.9 °F 28.4 °F 75% 29.90 in 2.5 mi Variable 6.9 mph - 0.00 in Snow Light Snow
3:50 PM 35.6 °F 29.2 °F 28.4 °F 75% 29.90 in 1.2 mi SSW 8.1 mph 16.1 mph 0.00 in Snow Light Snow
3:53 PM 35.6 °F 27.1 °F 28.4 °F 75% 29.91 in 0.8 mi South 12.7 mph 18.4 mph N/A Snow Light Snow
4:09 PM 35.6 °F 25.9 °F 28.4 °F 75% 29.90 in 1.2 mi SSW 16.1 mph 25.3 mph 0.00 in Snow Light Snow
4:24 PM 35.6 °F 26.6 °F 28.4 °F 75% 29.90 in 2.0 mi SSW 13.8 mph 25.3 mph 0.00 in Snow Light Snow
4:37 PM 35.6 °F 26.6 °F 28.4 °F 75% 29.90 in 2.5 mi SSW 13.8 mph 26.5 mph 0.01 in Snow Light Snow
4:42 PM 35.6 °F 26.6 °F 28.4 °F 75% 29.90 in 1.0 mi SSW 13.8 mph 24.2 mph 0.01 in Snow Light Snow
4:50 PM 35.6 °F 25.5 °F 28.4 °F 75% 29.91 in 0.5 mi SSW 17.3 mph 26.5 mph 0.01 in Snow Snow
4:53 PM 35.1 °F 26.4 °F 28.9 °F 78% 29.92 in 0.2 mi SSW 12.7 mph 26.5 mph 0.01 in Snow Heavy Snow
5:12 PM 35.6 °F 28.0 °F 28.4 °F 75% 29.90 in 1.5 mi SSW 10.4 mph 20.7 mph 0.01 in Snow Light Snow
5:41 PM 35.6 °F 29.9 °F 30.2 °F 81% 29.91 in 0.8 mi SW 6.9 mph 18.4 mph 0.02 in Snow Light Snow
5:53 PM 35.1 °F 30.1 °F 30.9 °F 85% 29.92 in 0.8 mi SSW 5.8 mph - 0.03 in Snow Light Snow
6:06 PM 35.6 °F 27.5 °F 30.2 °F 81% 29.90 in 1.0 mi South 11.5 mph 19.6 mph 0.01 in Snow Light Snow
6:15 PM 35.6 °F 27.5 °F 30.2 °F 81% 29.91 in 0.8 mi South 11.5 mph 19.6 mph 0.02 in Snow Light Snow
6:44 PM 35.6 °F 28.6 °F 30.2 °F 81% 29.90 in 1.5 mi South 9.2 mph - 0.03 in Snow Light Snow
6:53 PM 35.1 °F 28.6 °F 30.9 °F 85% 29.89 in 1.0 mi South 8.1 mph 17.3 mph 0.04 in Snow Light Snow
6:59 PM 35.6 °F 28.6 °F 30.2 °F 81% 29.90 in 0.8 mi South 9.2 mph - 0.01 in Snow Light Snow
7:33 PM 35.6 °F 28.6 °F 30.2 °F 81% 29.88 in 1.0 mi South 9.2 mph - 0.04 in Snow Light Snow
7:51 PM 35.6 °F 27.5 °F 30.2 °F 81% 29.88 in 0.8 mi South 11.5 mph - 0.05 in Snow Light Snow
7:53 PM 35.1 °F 28.6 °F 30.9 °F 85% 29.86 in 0.8 mi South 8.1 mph - 0.05 in Snow Light Snow
7:59 PM 35.6 °F 28.6 °F 30.2 °F 81% 29.88 in 1.0 mi South 9.2 mph 17.3 mph 0.01 in Snow Light Snow
8:07 PM 35.6 °F 28.0 °F 30.2 °F 81% 29.88 in 1.0 mi South 10.4 mph 18.4 mph 0.01 in Snow Light Snow
8:18 PM 35.6 °F 28.6 °F 30.2 °F 81% 29.88 in 1.5 mi South 9.2 mph - 0.01 in Snow Light Snow
8:39 PM 35.6 °F 27.5 °F 30.2 °F 81% 29.87 in 0.8 mi South 11.5 mph - 0.02 in Snow Light Snow
8:45 PM 35.6 °F 28.0 °F 30.2 °F 81% 29.87 in 1.0 mi South 10.4 mph - 0.02 in Snow Light Snow
8:53 PM 35.1 °F 27.4 °F 30.9 °F 85% 29.85 in 1.2 mi South 10.4 mph - 0.02 in Snow Light Snow
9:03 PM 35.6 °F 28.6 °F 30.2 °F 81% 29.87 in 0.8 mi South 9.2 mph - 0.01 in Snow Light Snow
9:18 PM 35.6 °F 28.6 °F 32.0 °F 87% 29.85 in 1.0 mi South 9.2 mph - 0.02 in Snow Light Snow
9:30 PM 35.6 °F 26.6 °F 30.2 °F 81% 29.84 in 1.8 mi South 13.8 mph 24.2 mph 0.02 in Snow Light Snow
9:33 PM 35.6 °F 25.9 °F 30.2 °F 81% 29.84 in 2.0 mi South 16.1 mph 24.2 mph 0.03 in Snow Light Snow
9:48 PM 35.6 °F 25.5 °F 30.2 °F 81% 29.84 in 1.0 mi SSW 17.3 mph 32.2 mph 0.03 in Snow Light Snow
9:53 PM 36.0 °F 26.3 °F 30.0 °F 79% 29.81 in 1.2 mi SSW 16.1 mph 32.2 mph 0.03 in Snow Light Snow
10:04 PM 35.6 °F 25.2 °F 30.2 °F 81% 29.84 in 3.0 mi SSW 18.4 mph 28.8 mph 0.00 in Snow Light Snow
10:16 PM 37.4 °F 28.5 °F 28.4 °F 70% 29.83 in 5.0 mi SSW 15.0 mph 27.6 mph 0.00 in   Haze
10:53 PM 37.0 °F 26.7 °F 28.9 °F 73% 29.81 in 7.0 mi SSW 19.6 mph 28.8 mph 0.00 in Snow Light Snow
11:06 PM 37.4 °F 28.2 °F 28.4 °F 70% 29.83 in 4.0 mi SSW 16.1 mph 29.9 mph 0.00 in Snow Light Snow
11:16 PM 37.4 °F 27.8 °F 28.4 °F 70% 29.82 in 6.0 mi SSW 17.3 mph 26.5 mph 0.00 in   Haze
11:20 PM 35.6 °F 25.5 °F 30.2 °F 81% 29.82 in 4.0 mi South 17.3 mph 26.5 mph 0.00 in Snow Light Snow
11:37 PM 35.6 °F 28.0 °F 30.2 °F 81% 29.82 in 1.8 mi SSW 10.4 mph - 0.00 in Snow Light Snow
11:53 PM 35.1 °F 28.6 °F 30.9 °F 85% 29.80 in 1.0 mi South 8.1 mph 23.0 mph 0.01 in Snow Light Snow
11:55 PM 35.6 °F 29.2 °F 30.2 °F 81% 29.81 in 0.8 mi South 8.1 mph 23.0 mph 0.00 in Snow Light Snow
11:58 PM 35.6 °F 28.6 °F 30.2 °F 81% 29.80 in 1.0 mi SSW 9.2 mph 23.0 mph 0.00 in Snow Light Snow